User: anonymous   Login
Location: Unspecified
(0.0000°N, 0.0000°E)
Time: 02:51:29
(UTC+00:00)
Language:

AO-Echo - Orbit

View from above orbital plane
View from above orbital plane
View from above satellite
View from above satellite

Ground track
Ground track

The orbit data is extracted from the following two-line orbital elements,

1 28375U 04025K   17232.27831148 +.00000009 +00000-0 +15717-4 0  9999
2 28375 098.3593 164.4098 0083809 090.1858 270.8935 14.41848193690995
Epoch (UTC): 20 August 2017 06:40:46
Eccentricity: 0.0083809
inclination: 98.3593°
perigee height: 692 km
apogee height: 812 km
right ascension of ascending node: 164.4098°
argument of perigee: 90.1858°
revolutions per day: 14.41848193
mean anomaly at epoch: 270.8935°
orbit number at epoch: 69099

The dashed part of the orbit path shows where the satellite is in the earth's shadow,  

DLR